Owatonna, MN

8:50 AM CST on December 15, 2017 (GMT -0600)
Owatonna Degner Regional

Weather History for KOWA - October, 2013

Change the Weather History Date:

Sunday, October 27, 2013

  Actual Average Record
Temperature  
Mean Temperature 45 °F -  
Max Temperature 62 °F 58 °F 140 °F (1998)
Min Temperature 28 °F 36 °F 15 °F (1976)
Degree Days  
Heating Degree Days 20    
Moisture  
Dew Point 29 °F    
Average Humidity 61    
Maximum Humidity 93    
Minimum Humidity 30    
Precipitation  
Precipitation 0.00 in - - ()
Sea Level Pressure  
Sea Level Pressure 29.93 in    
Wind  
Wind Speed 8 mph (SSW)    
Max Wind Speed 16 mph    
Max Gust Speed 22 mph    
Visibility 10 miles    
Events      
Averages and records for this station are not official NWS values.
T = Trace of Precipitation, MM = Missing Value Source: NWS Daily Summary

Daily Weather History Graph

Daily Weather History Graph

Search for Another Location

Airport or City:

Trip Planner

Search our weather history database for the weather conditions in past years. The results will help you decide how hot, cold, wet, or windy it might be!

Date:

Astronomy

Oct. 27, 2013 Rise Set
Actual Time 7:43 AM CDT 6:09 PM CDT
Civil Twilight 7:13 AM CDT 6:39 PM CDT
Nautical Twilight 6:39 AM CDT 7:13 PM CDT
Astronomical Twilight 6:06 AM CDT 7:46 PM CDT
Moon 12:27 AM CDT (10/27) 2:32 PM CDT (10/27)
Length of Visible Light 11h 25m
Length of Day
10h 26m
Last Quarter, 43% of the Moon is Illuminated
Oct 27
Last Quarter
Nov 3
New
Nov 9
First Quarter
Nov 17
Full
Nov 25
Last Quarter

Hourly Weather History & Observations

Time (CDT) Temp. Windchill Dew Point Humidity Pressure Visibility Wind Dir Wind Speed Gust Speed Precip Events Conditions
12:14 AM 30.2 °F 24.3 °F 26.6 °F 86% 30.05 in 10.0 mi South 5.8 mph - N/A   Clear
12:34 AM 30.2 °F 23.4 °F 26.6 °F 86% 30.05 in 10.0 mi SSW 6.9 mph - N/A   Clear
12:54 AM 30.2 °F 23.4 °F 26.6 °F 86% 30.03 in 10.0 mi SSW 6.9 mph - N/A   Clear
1:14 AM 30.2 °F 26.7 °F 26.6 °F 86% 30.04 in 10.0 mi SSW 3.5 mph - N/A   Clear
1:34 AM 30.2 °F 26.7 °F 26.6 °F 86% 30.03 in 10.0 mi SSW 3.5 mph - N/A   Clear
1:54 AM 28.4 °F 24.6 °F 26.6 °F 93% 30.03 in 10.0 mi SSW 3.5 mph - N/A   Clear
2:14 AM 28.4 °F 22.2 °F 26.6 °F 93% 30.01 in 10.0 mi SSW 5.8 mph - N/A   Clear
2:34 AM 28.4 °F 23.3 °F 24.8 °F 86% 30.01 in 10.0 mi SSW 4.6 mph - N/A   Clear
2:54 AM 28.4 °F 22.2 °F 24.8 °F 86% 30.00 in 10.0 mi South 5.8 mph - N/A   Clear
3:14 AM 28.4 °F 23.3 °F 24.8 °F 86% 30.00 in 10.0 mi South 4.6 mph - N/A   Clear
3:34 AM 30.2 °F 25.4 °F 24.8 °F 80% 29.99 in 10.0 mi South 4.6 mph - N/A   Clear
3:54 AM 28.4 °F 23.3 °F 24.8 °F 86% 29.98 in 10.0 mi South 4.6 mph - N/A   Clear
4:14 AM 28.4 °F 24.6 °F 24.8 °F 86% 29.98 in 10.0 mi South 3.5 mph - N/A   Clear
4:34 AM 28.4 °F 22.2 °F 24.8 °F 86% 29.97 in 10.0 mi South 5.8 mph - N/A   Clear
4:54 AM 30.2 °F 24.3 °F 24.8 °F 80% 29.97 in 10.0 mi South 5.8 mph - N/A   Clear
5:14 AM 30.2 °F 24.3 °F 24.8 °F 80% 29.97 in 10.0 mi South 5.8 mph - N/A   Clear
5:34 AM 30.2 °F 23.4 °F 24.8 °F 80% 29.96 in 10.0 mi South 6.9 mph - N/A   Clear
5:54 AM 30.2 °F 22.6 °F 24.8 °F 80% 29.96 in 10.0 mi South 8.1 mph - N/A   Clear
6:14 AM 30.2 °F 22.6 °F 24.8 °F 80% 29.95 in 10.0 mi South 8.1 mph - N/A   Clear
6:34 AM 30.2 °F 23.4 °F 24.8 °F 80% 29.95 in 10.0 mi South 6.9 mph - N/A   Clear
6:54 AM 30.2 °F 23.4 °F 24.8 °F 80% 29.94 in 10.0 mi South 6.9 mph - N/A   Clear
7:14 AM 30.2 °F 23.4 °F 24.8 °F 80% 29.93 in 10.0 mi South 6.9 mph - N/A   Clear
7:34 AM 30.2 °F 21.9 °F 24.8 °F 80% 29.92 in 10.0 mi South 9.2 mph - N/A   Clear
7:54 AM 30.2 °F 21.3 °F 24.8 °F 80% 29.92 in 10.0 mi South 10.4 mph - N/A   Clear
8:14 AM 32.0 °F 24.2 °F 24.8 °F 75% 29.91 in 10.0 mi South 9.2 mph - N/A   Clear
8:34 AM 33.8 °F 26.4 °F 26.6 °F 75% 29.91 in 10.0 mi South 9.2 mph - N/A   Clear
8:54 AM 33.8 °F 26.4 °F 26.6 °F 75% 29.92 in 10.0 mi South 9.2 mph - N/A   Clear
9:14 AM 35.6 °F 28.6 °F 26.6 °F 70% 29.91 in 10.0 mi South 9.2 mph - N/A   Clear
9:34 AM 37.4 °F 29.8 °F 28.4 °F 70% 29.91 in 10.0 mi SSW 11.5 mph - N/A   Clear
9:54 AM 41.0 °F 33.9 °F 28.4 °F 61% 29.90 in 10.0 mi South 12.7 mph - N/A   Clear
10:14 AM 42.8 °F 35.8 °F 28.4 °F 57% 29.89 in 10.0 mi SSW 13.8 mph 18.4 mph N/A   Clear
10:34 AM 46.4 °F 41.1 °F 28.4 °F 50% 29.88 in 10.0 mi South 11.5 mph 20.7 mph N/A   Clear
10:54 AM 48.2 °F - 28.4 °F 46% 29.87 in 10.0 mi SSW 12.7 mph 21.9 mph N/A   Clear
11:14 AM 50.0 °F - 28.4 °F 43% 29.87 in 10.0 mi SSW 10.4 mph 21.9 mph N/A   Clear
11:34 AM 51.8 °F - 28.4 °F 41% 29.86 in 10.0 mi SSW 12.7 mph 18.4 mph N/A   Clear
11:54 AM 53.6 °F - 28.4 °F 38% 29.86 in 10.0 mi SSW 12.7 mph 21.9 mph N/A   Clear
12:14 PM 53.6 °F - 28.4 °F 38% 29.85 in 10.0 mi South 12.7 mph - N/A   Clear
12:34 PM 55.4 °F - 28.4 °F 36% 29.84 in 10.0 mi South 13.8 mph 20.7 mph N/A   Clear
12:54 PM 55.4 °F - 28.4 °F 36% 29.83 in 10.0 mi South 13.8 mph - N/A   Clear
1:14 PM 57.2 °F - 30.2 °F 36% 29.82 in 10.0 mi SSW 10.4 mph - N/A   Clear
1:34 PM 59.0 °F - 28.4 °F 31% 29.82 in 10.0 mi SW 9.2 mph - N/A   Clear
1:54 PM 59.0 °F - 30.2 °F 34% 29.82 in 10.0 mi WSW 8.1 mph - N/A   Clear
2:14 PM 60.8 °F - 30.2 °F 31% 29.82 in 10.0 mi SSW 6.9 mph - N/A   Clear
2:34 PM 60.8 °F - 30.2 °F 31% 29.81 in 10.0 mi WSW 6.9 mph - N/A   Clear
2:54 PM 60.8 °F - 30.2 °F 31% 29.80 in 10.0 mi WSW 8.1 mph - N/A   Clear
3:14 PM 62.6 °F - 30.2 °F 30% 29.80 in 10.0 mi SW 5.8 mph - N/A   Clear
3:34 PM 62.6 °F - 30.2 °F 30% 29.81 in 10.0 mi SW 4.6 mph - N/A   Clear
3:54 PM 62.6 °F - 30.2 °F 30% 29.82 in 10.0 mi West 5.8 mph - N/A   Clear
4:14 PM 60.8 °F - 32.0 °F 34% 29.83 in 10.0 mi West 4.6 mph - N/A   Clear
4:34 PM 60.8 °F - 33.8 °F 36% 29.84 in 10.0 mi West 5.8 mph - N/A   Clear
4:54 PM 60.8 °F - 33.8 °F 36% 29.84 in 10.0 mi NNW 8.1 mph - N/A   Clear
5:14 PM 57.2 °F - 35.6 °F 44% 29.85 in 10.0 mi NNW 5.8 mph - N/A   Clear
5:34 PM 55.4 °F - 35.6 °F 47% 29.86 in 10.0 mi North 8.1 mph - N/A   Clear
5:54 PM 53.6 °F - 33.8 °F 47% 29.87 in 10.0 mi North 8.1 mph - N/A   Clear
6:14 PM 51.8 °F - 33.8 °F 50% 29.88 in 10.0 mi North 5.8 mph - N/A   Clear
6:34 PM 51.8 °F - 33.8 °F 50% 29.89 in 10.0 mi North 5.8 mph - N/A   Clear
6:54 PM 48.2 °F - 33.8 °F 58% 29.90 in 10.0 mi North 6.9 mph - N/A   Clear
7:14 PM 51.8 °F - 32.0 °F 47% 29.90 in 10.0 mi North 9.2 mph - N/A   Clear
7:34 PM 50.0 °F - 32.0 °F 50% 29.92 in 10.0 mi North 9.2 mph - N/A   Clear
7:54 PM 50.0 °F - 32.0 °F 50% 29.93 in 10.0 mi North 13.8 mph - N/A   Clear
8:14 PM 48.2 °F - 32.0 °F 54% 29.94 in 10.0 mi North 12.7 mph - N/A   Clear
8:34 PM 48.2 °F - 32.0 °F 54% 29.95 in 10.0 mi North 8.1 mph 18.4 mph N/A   Clear
8:54 PM 48.2 °F - 32.0 °F 54% 29.97 in 10.0 mi NNE 12.7 mph 17.3 mph N/A   Clear
9:14 PM 46.4 °F 40.7 °F 32.0 °F 57% 29.98 in 10.0 mi North 12.7 mph - N/A   Clear
9:34 PM 46.4 °F 40.1 °F 32.0 °F 57% 29.99 in 10.0 mi NNE 15.0 mph 20.7 mph N/A   Clear
9:54 PM 46.4 °F 41.5 °F 32.0 °F 57% 30.01 in 10.0 mi NNE 10.4 mph 19.6 mph N/A   Clear
10:14 PM 44.6 °F 39.2 °F 32.0 °F 61% 30.02 in 10.0 mi NNE 10.4 mph - N/A   Clear
10:34 PM 42.8 °F 38.0 °F 32.0 °F 66% 30.04 in 10.0 mi NNE 8.1 mph - N/A   Clear
10:54 PM 42.8 °F 37.0 °F 32.0 °F 66% 30.05 in 10.0 mi NNE 10.4 mph - N/A   Clear
11:14 PM 42.8 °F 36.2 °F 32.0 °F 66% 30.06 in 10.0 mi NNE 12.7 mph 20.7 mph N/A   Clear
11:34 PM 41.0 °F 32.8 °F 30.2 °F 65% 30.07 in 10.0 mi NNE 16.1 mph 21.9 mph N/A   Clear
11:54 PM 41.0 °F 33.5 °F 30.2 °F 65% 30.08 in 10.0 mi NNE 13.8 mph - N/A   Clear